When you browse on this site, cookies collect data to enhance your experience and personalize the content and advertising you see.
Visit our Privacy Policy to learn more. By continuing to use the site, you agree to this use of cookies and data.
  • Em Portugal
  • Lista de países
  • Para 7 dias
  • Temperatura da água
  • Mapa do tempo
  • Widgets de tempo
  • user-avatar
    Iniciar Sessão

    Previsão horária em Sidi Bu-l-Abbas

    Hoje, 15 Outubro, Terça-feira

    Tempo Temperatura Precipitação Vento Pressão Humidade
    00:00 +19°C° 0 mm 4 m/s 722 mmHg 76%
    01:00 +19°C° 0 mm 4 m/s 722 mmHg 79%
    02:00 +18°C° 0 mm 4 m/s 722 mmHg 81%
    03:00 +18°C° 0 mm 3 m/s 722 mmHg 84%
    04:00 +17°C° 0 mm 3 m/s 722 mmHg 84%
    05:00 +17°C° 0 mm 3 m/s 722 mmHg 84%
    06:00 +17°C° 0 mm 2 m/s 722 mmHg 86%
    07:00 +18°C° 0 mm 2 m/s 723 mmHg 81%
    08:00 +19°C° 0 mm 3 m/s 723 mmHg 75%
    09:00 +20°C° 0 mm 3 m/s 723 mmHg 69%
    10:00 +21°C° 0 mm 3 m/s 723 mmHg 63%
    11:00 +22°C° 0 mm 4 m/s 723 mmHg 57%
    12:00 +23°C° 0 mm 4 m/s 723 mmHg 50%
    13:00 +23°C° 0 mm 4 m/s 723 mmHg 51%
    14:00 +23°C° 0 mm 4 m/s 722 mmHg 51%
    15:00 +23°C° 0 mm 5 m/s 722 mmHg 52%
    16:00 +22°C° 0 mm 4 m/s 722 mmHg 56%
    17:00 +21°C° 0 mm 4 m/s 722 mmHg 60%
    18:00 +20°C° 0 mm 3 m/s 722 mmHg 64%
    19:00 +19°C° 0 mm 3 m/s 723 mmHg 66%
    20:00 +19°C° 0 mm 2 m/s 723 mmHg 68%
    21:00 +19°C° 0 mm 1 m/s 723 mmHg 69%
    22:00 +19°C° 0 mm 1 m/s 723 mmHg 70%
    23:00 +19°C° 0 mm 1 m/s 723 mmHg 71%

    Amanhã, 16 Outubro, Quarta-feira

    Tempo Temperatura Precipitação Vento Pressão Humidade
    00:00 +18°C° 0 mm 1 m/s 723 mmHg 72%
    01:00 +16°C° 0 mm 0 m/s 722 mmHg 73%
    02:00 +16°C° 0 mm 0 m/s 722 mmHg 75%
    03:00 +15°C° 0 mm 0 m/s 722 mmHg 76%
    04:00 +15°C° 0 mm 0 m/s 722 mmHg 77%
    05:00 +15°C° 0 mm 0 m/s 722 mmHg 78%
    06:00 +15°C° 0 mm 0 m/s 722 mmHg 79%
    07:00 +16°C° 0 mm 0 m/s 722 mmHg 72%
    08:00 +18°C° 0 mm 0 m/s 722 mmHg 65%
    09:00 +21°C° 0 mm 1 m/s 723 mmHg 58%
    10:00 +23°C° 0 mm 1 m/s 723 mmHg 53%
    11:00 +24°C° 0 mm 1 m/s 722 mmHg 48%
    12:00 +25°C° 0 mm 2 m/s 722 mmHg 43%
    13:00 +25°C° 0 mm 3 m/s 722 mmHg 43%
    14:00 +26°C° 0 mm 3 m/s 722 mmHg 42%
    15:00 +26°C° 0 mm 4 m/s 721 mmHg 42%
    16:00 +25°C° 0 mm 3 m/s 721 mmHg 47%
    17:00 +22°C° 0 mm 3 m/s 721 mmHg 52%
    18:00 +21°C° 0 mm 3 m/s 721 mmHg 58%
    19:00 +20°C° 0 mm 2 m/s 721 mmHg 60%
    20:00 +21°C° 0 mm 1 m/s 721 mmHg 62%
    21:00 +18°C° 0 mm 0 m/s 722 mmHg 65%
    22:00 +18°C° 0 mm 0 m/s 722 mmHg 66%
    23:00 +18°C° 0 mm 0 m/s 722 mmHg 68%

    Depois de amanhã, 17 Outubro, Quinta-feira

    Tempo Temperatura Precipitação Vento Pressão Humidade
    00:00 +17°C° 0 mm 0 m/s 722 mmHg 69%
    01:00 +17°C° 0 mm 0 m/s 721 mmHg 70%
    02:00 +17°C° 0 mm 0 m/s 721 mmHg 71%
    03:00 +16°C° 0 mm 0 m/s 721 mmHg 72%
    04:00 +16°C° 0 mm 0 m/s 721 mmHg 73%
    05:00 +16°C° 0 mm 0 m/s 720 mmHg 74%
    06:00 +15°C° 0 mm 0 m/s 720 mmHg 75%
    07:00 +17°C° 0 mm 0 m/s 721 mmHg 69%
    08:00 +20°C° 0 mm 1 m/s 721 mmHg 64%
    09:00 +22°C° 0 mm 1 m/s 722 mmHg 58%
    10:00 +23°C° 0 mm 1 m/s 722 mmHg 53%
    11:00 +24°C° 0 mm 2 m/s 722 mmHg 49%
    12:00 +25°C° 0 mm 2 m/s 722 mmHg 44%
    13:00 +26°C° 0 mm 3 m/s 722 mmHg 44%
    14:00 +26°C° 0 mm 3 m/s 722 mmHg 43%
    15:00 +26°C° 0 mm 4 m/s 721 mmHg 43%
    16:00 +25°C° 0 mm 3 m/s 721 mmHg 47%
    17:00 +22°C° 0 mm 3 m/s 721 mmHg 51%
    18:00 +21°C° 0 mm 2 m/s 721 mmHg 55%
    19:00 +21°C° 0 mm 2 m/s 721 mmHg 57%
    20:00 +21°C° 0 mm 1 m/s 721 mmHg 60%
    21:00 +19°C° 0 mm 0 m/s 722 mmHg 62%
    22:00 +18°C° 0 mm 0 m/s 722 mmHg 63%
    23:00 +18°C° 0 mm 0 m/s 722 mmHg 65%

    18 Outubro, Sexta-feira

    Tempo Temperatura Precipitação Vento Pressão Humidade
    00:00 +18°C° 0 mm 0 m/s 721 mmHg 67%
    01:00 +17°C° 0 mm 0 m/s 721 mmHg 68%
    02:00 +17°C° 0 mm 0 m/s 721 mmHg 69%
    03:00 +17°C° 0 mm 0 m/s 721 mmHg 70%
    04:00 +17°C° 0 mm 0 m/s 721 mmHg 72%
    05:00 +16°C° 0 mm 0 m/s 721 mmHg 74%
    06:00 +16°C° 0 mm 0 m/s 721 mmHg 76%
    07:00 +17°C° 0 mm 0 m/s 721 mmHg 69%
    08:00 +19°C° 0 mm 0 m/s 722 mmHg 62%
    09:00 +21°C° 0 mm 0 m/s 722 mmHg 55%
    10:00 +24°C° 0 mm 1 m/s 722 mmHg 50%
    11:00 +25°C° 0 mm 1 m/s 722 mmHg 45%
    12:00 +27°C° 0 mm 2 m/s 722 mmHg 40%
    13:00 +27°C° 0 mm 3 m/s 722 mmHg 39%
    14:00 +27°C° 0 mm 4 m/s 721 mmHg 38%
    15:00 +27°C° 0 mm 5 m/s 721 mmHg 36%
    16:00 +26°C° 0 mm 4 m/s 721 mmHg 39%
    17:00 +25°C° 0 mm 3 m/s 721 mmHg 41%
    18:00 +23°C° 0 mm 2 m/s 720 mmHg 43%
    19:00 +23°C° 0 mm 1 m/s 720 mmHg 46%
    20:00 +22°C° 0 mm 1 m/s 721 mmHg 49%
    21:00 +20°C° 0 mm 0 m/s 721 mmHg 51%
    22:00 +19°C° 0 mm 0 m/s 721 mmHg 52%
    23:00 +19°C° 0 mm 0 m/s 720 mmHg 53%

    19 Outubro, Sábado

    Tempo Temperatura Precipitação Vento Pressão Humidade
    00:00 +19°C° 0 mm 0 m/s 720 mmHg 54%
    01:00 +18°C° 0 mm 0 m/s 720 mmHg 56%
    02:00 +18°C° 0 mm 0 m/s 719 mmHg 57%
    03:00 +18°C° 0 mm 0 m/s 719 mmHg 58%
    04:00 +18°C° 0 mm 0 m/s 719 mmHg 59%
    05:00 +19°C° 0 mm 1 m/s 719 mmHg 60%
    06:00 +19°C° 0 mm 1 m/s 719 mmHg 61%
    07:00 +21°C° 0 mm 1 m/s 719 mmHg 54%
    08:00 +21°C° 0 mm 2 m/s 720 mmHg 47%
    09:00 +24°C° 0 mm 2 m/s 720 mmHg 41%
    10:00 +25°C° 0 mm 3 m/s 720 mmHg 39%
    11:00 +26°C° 0 mm 4 m/s 720 mmHg 37%
    12:00 +27°C° 0 mm 5 m/s 720 mmHg 35%
    13:00 +27°C° 0 mm 5 m/s 719 mmHg 38%
    14:00 +27°C° 0 mm 6 m/s 719 mmHg 42%
    15:00 +26°C° 0 mm 6 m/s 719 mmHg 46%
    16:00 +25°C° 0 mm 5 m/s 719 mmHg 50%
    17:00 +23°C° 0 mm 4 m/s 718 mmHg 54%
    18:00 +21°C° 0 mm 2 m/s 718 mmHg 58%
    19:00 +21°C° 0 mm 2 m/s 719 mmHg 59%
    20:00 +20°C° 0 mm 2 m/s 719 mmHg 59%
    21:00 +21°C° 0 mm 1 m/s 719 mmHg 60%
    22:00 +21°C° 0 mm 1 m/s 719 mmHg 59%
    23:00 +20°C° 0 mm 1 m/s 719 mmHg 59%

    20 Outubro, Domingo

    Tempo Temperatura Precipitação Vento Pressão Humidade
    00:00 +20°C° 0 mm 1 m/s 719 mmHg 59%
    01:00 +20°C° 0 mm 1 m/s 718 mmHg 59%
    02:00 +19°C° 0 mm 1 m/s 718 mmHg 60%
    03:00 +19°C° 0 mm 1 m/s 718 mmHg 61%
    04:00 +19°C° 0 mm 1 m/s 718 mmHg 62%
    05:00 +18°C° 0 mm 1 m/s 718 mmHg 62%
    06:00 +18°C° 0 mm 1 m/s 718 mmHg 63%
    07:00 +20°C° 0 mm 1 m/s 718 mmHg 58%
    08:00 +21°C° 0 mm 1 m/s 718 mmHg 52%
    09:00 +23°C° 0 mm 2 m/s 719 mmHg 47%
    10:00 +24°C° 0 mm 3 m/s 718 mmHg 46%
    11:00 +23°C° 0 mm 4 m/s 718 mmHg 45%
    12:00 +24°C° 0 mm 6 m/s 718 mmHg 44%
    13:00 +24°C° 0.1 mm 6 m/s 718 mmHg 48%
    14:00 +23°C° 0.1 mm 6 m/s 717 mmHg 51%
    15:00 +22°C° 0.1 mm 6 m/s 717 mmHg 54%
    16:00 +21°C° 0.2 mm 6 m/s 717 mmHg 60%
    17:00 +20°C° 0.2 mm 5 m/s 717 mmHg 65%
    18:00 +19°C° 0.2 mm 4 m/s 717 mmHg 71%
    19:00 +17°C° 0.3 mm 5 m/s 718 mmHg 72%
    20:00 +17°C° 0.3 mm 5 m/s 718 mmHg 73%
    21:00 +16°C° 0.3 mm 5 m/s 718 mmHg 74%
    22:00 +16°C° 0.2 mm 6 m/s 718 mmHg 70%
    23:00 +16°C° 0.2 mm 6 m/s 719 mmHg 66%
    Mostrar mais